Year,Month,Day,Hour,Minute,Value (Times are PST for temperature in C)
2011,04,27,00,00,5.20
2011,04,27,00,01,5.10
2011,04,27,00,02,5.10
2011,04,27,00,03,5.10
2011,04,27,00,04,5.10
2011,04,27,00,05,5.10
2011,04,27,00,06,5.10
2011,04,27,00,07,5.10
2011,04,27,00,08,5.10
2011,04,27,00,09,5.10
2011,04,27,00,10,5.00
2011,04,27,00,11,5.00
2011,04,27,00,12,5.00
2011,04,27,00,13,4.90
2011,04,27,00,14,4.90
2011,04,27,00,15,5.00
2011,04,27,00,16,4.90
2011,04,27,00,17,4.90
2011,04,27,00,18,4.90
2011,04,27,00,19,4.90
2011,04,27,00,20,4.90
2011,04,27,00,21,4.90
2011,04,27,00,22,4.90
2011,04,27,00,23,4.80
2011,04,27,00,24,4.80
2011,04,27,00,25,4.80
2011,04,27,00,26,4.80
2011,04,27,00,27,4.80
2011,04,27,00,28,4.70
2011,04,27,00,29,4.70
2011,04,27,00,30,4.70
2011,04,27,00,31,4.70
2011,04,27,00,32,4.70
2011,04,27,00,33,4.60
2011,04,27,00,34,4.60
2011,04,27,00,35,4.60
2011,04,27,00,36,4.60
2011,04,27,00,37,4.60
2011,04,27,00,38,4.60
2011,04,27,00,39,4.60
2011,04,27,00,40,4.50
2011,04,27,00,41,4.50
2011,04,27,00,42,4.50
2011,04,27,00,43,4.50
2011,04,27,00,44,4.50
2011,04,27,00,45,4.50
2011,04,27,00,46,4.40
2011,04,27,00,47,4.40
2011,04,27,00,48,4.40
2011,04,27,00,49,4.40
2011,04,27,00,50,4.40
2011,04,27,00,51,4.40
2011,04,27,00,52,4.40
2011,04,27,00,53,4.40
2011,04,27,00,54,4.40
2011,04,27,00,55,4.40
2011,04,27,00,56,4.40
2011,04,27,00,57,4.40
2011,04,27,00,58,4.40
2011,04,27,00,59,4.40
2011,04,27,01,00,4.40
2011,04,27,01,01,4.40
2011,04,27,01,02,4.40
2011,04,27,01,03,4.40
2011,04,27,01,04,4.40
2011,04,27,01,05,4.40
2011,04,27,01,06,4.40
2011,04,27,01,07,4.40
2011,04,27,01,08,4.40
2011,04,27,01,09,4.50
2011,04,27,01,10,4.50
2011,04,27,01,11,4.60
2011,04,27,01,12,4.60
2011,04,27,01,13,4.60
2011,04,27,01,14,4.70
2011,04,27,01,15,4.70
2011,04,27,01,16,4.80
2011,04,27,01,17,4.80
2011,04,27,01,18,4.80
2011,04,27,01,19,4.80
2011,04,27,01,20,4.80
2011,04,27,01,21,4.80
2011,04,27,01,22,4.90
2011,04,27,01,23,4.90
2011,04,27,01,24,4.90
2011,04,27,01,25,4.90
2011,04,27,01,26,4.90
2011,04,27,01,27,4.80
2011,04,27,01,28,4.80
2011,04,27,01,29,4.90
2011,04,27,01,30,4.90
2011,04,27,01,31,4.90
2011,04,27,01,32,4.90
2011,04,27,01,33,4.90
2011,04,27,01,34,4.90
2011,04,27,01,35,4.90
2011,04,27,01,36,4.80
2011,04,27,01,37,4.80
2011,04,27,01,38,4.80
2011,04,27,01,39,4.80
2011,04,27,01,40,4.80
2011,04,27,01,41,4.70
2011,04,27,01,42,4.70
2011,04,27,01,43,4.70
2011,04,27,01,44,4.70
2011,04,27,01,45,4.60
2011,04,27,01,46,4.70
2011,04,27,01,47,4.70
2011,04,27,01,48,4.70
2011,04,27,01,49,4.70
2011,04,27,01,50,4.70
2011,04,27,01,51,4.70
2011,04,27,01,52,4.60
2011,04,27,01,53,4.60
2011,04,27,01,54,4.60
2011,04,27,01,55,4.60
2011,04,27,01,56,4.60
2011,04,27,01,57,4.60
2011,04,27,01,58,4.60
2011,04,27,01,59,4.60
2011,04,27,02,00,4.50
2011,04,27,02,01,4.50
2011,04,27,02,02,4.50
2011,04,27,02,03,4.50
2011,04,27,02,04,4.50
2011,04,27,02,05,4.50
2011,04,27,02,06,4.50
2011,04,27,02,07,4.50
2011,04,27,02,08,4.50
2011,04,27,02,09,4.50
2011,04,27,02,10,4.60
2011,04,27,02,11,4.60
2011,04,27,02,12,4.60
2011,04,27,02,13,4.60
2011,04,27,02,14,4.60
2011,04,27,02,15,4.60
2011,04,27,02,16,4.60
2011,04,27,02,17,4.70
2011,04,27,02,18,4.70
2011,04,27,02,19,4.70
2011,04,27,02,20,4.80
2011,04,27,02,21,4.80
2011,04,27,02,22,4.80
2011,04,27,02,23,4.80
2011,04,27,02,24,4.90
2011,04,27,02,25,4.90
2011,04,27,02,26,4.90
2011,04,27,02,27,4.90
2011,04,27,02,28,4.90
2011,04,27,02,29,4.90
2011,04,27,02,30,4.90
2011,04,27,02,31,4.90
2011,04,27,02,32,4.90
2011,04,27,02,33,4.90
2011,04,27,02,34,4.90
2011,04,27,02,35,4.80
2011,04,27,02,36,4.80
2011,04,27,02,37,4.90
2011,04,27,02,38,4.80
2011,04,27,02,39,4.90
2011,04,27,02,40,4.90
2011,04,27,02,41,4.90
2011,04,27,02,42,4.90
2011,04,27,02,43,5.00
2011,04,27,02,44,5.10
2011,04,27,02,45,5.10
2011,04,27,02,46,5.20
2011,04,27,02,47,5.20
2011,04,27,02,48,5.20
2011,04,27,02,49,5.20
2011,04,27,02,50,5.20
2011,04,27,02,51,5.20
2011,04,27,02,52,5.20
2011,04,27,02,53,5.20
2011,04,27,02,54,5.20
2011,04,27,02,55,5.20
2011,04,27,02,56,5.20
2011,04,27,02,57,5.20
2011,04,27,02,58,5.20
2011,04,27,02,59,5.20
2011,04,27,03,00,5.20
2011,04,27,03,01,5.20
2011,04,27,03,02,5.20
2011,04,27,03,03,5.20
2011,04,27,03,04,5.20
2011,04,27,03,05,5.20
2011,04,27,03,06,5.20
2011,04,27,03,07,5.30
2011,04,27,03,08,5.30
2011,04,27,03,09,5.30
2011,04,27,03,10,5.30
2011,04,27,03,11,5.30
2011,04,27,03,12,5.20
2011,04,27,03,13,5.20
2011,04,27,03,14,5.20
2011,04,27,03,15,5.20
2011,04,27,03,16,5.20
2011,04,27,03,17,5.20
2011,04,27,03,18,5.20
2011,04,27,03,19,5.20
2011,04,27,03,20,5.20
2011,04,27,03,21,5.20
2011,04,27,03,22,5.10
2011,04,27,03,23,5.10
2011,04,27,03,24,5.20
2011,04,27,03,25,5.20
2011,04,27,03,26,5.20
2011,04,27,03,27,5.10
2011,04,27,03,28,5.20
2011,04,27,03,29,5.10
2011,04,27,03,30,5.10
2011,04,27,03,31,5.20
2011,04,27,03,32,5.20
2011,04,27,03,33,5.10
2011,04,27,03,34,5.20
2011,04,27,03,35,5.20
2011,04,27,03,36,5.20
2011,04,27,03,37,5.20
2011,04,27,03,38,5.20
2011,04,27,03,39,5.20
2011,04,27,03,40,5.20
2011,04,27,03,41,5.20
2011,04,27,03,42,5.20
2011,04,27,03,43,5.20
2011,04,27,03,44,5.20
2011,04,27,03,45,5.20
2011,04,27,03,46,5.20
2011,04,27,03,47,5.20
2011,04,27,03,48,5.20
2011,04,27,03,49,5.20
2011,04,27,03,50,5.20
2011,04,27,03,51,5.20
2011,04,27,03,52,5.20
2011,04,27,03,53,5.20
2011,04,27,03,54,5.20
2011,04,27,03,55,5.20
2011,04,27,03,56,5.20
2011,04,27,03,57,5.20
2011,04,27,03,58,5.20
2011,04,27,03,59,5.20
2011,04,27,04,00,5.20
2011,04,27,04,01,5.20
2011,04,27,04,02,5.20
2011,04,27,04,03,5.20
2011,04,27,04,04,5.20
2011,04,27,04,05,5.20
2011,04,27,04,06,5.30
2011,04,27,04,07,5.30
2011,04,27,04,08,5.30
2011,04,27,04,09,5.40
2011,04,27,04,10,5.40
2011,04,27,04,11,5.50
2011,04,27,04,12,5.50
2011,04,27,04,13,5.60
2011,04,27,04,14,5.60
2011,04,27,04,15,5.60
2011,04,27,04,16,5.70
2011,04,27,04,17,5.70
2011,04,27,04,18,5.80
2011,04,27,04,19,5.80
2011,04,27,04,20,5.80
2011,04,27,04,21,5.90
2011,04,27,04,22,5.90
2011,04,27,04,23,5.90
2011,04,27,04,24,6.00
2011,04,27,04,25,6.00
2011,04,27,04,26,6.10
2011,04,27,04,27,6.20
2011,04,27,04,28,6.30
2011,04,27,04,29,6.30
2011,04,27,04,30,6.40
2011,04,27,04,31,6.40
2011,04,27,04,32,6.40
2011,04,27,04,33,6.50
2011,04,27,04,34,6.50
2011,04,27,04,35,6.50
2011,04,27,04,36,6.50
2011,04,27,04,37,6.60
2011,04,27,04,38,6.60
2011,04,27,04,39,6.60
2011,04,27,04,40,6.60
2011,04,27,04,41,6.70
2011,04,27,04,42,6.70
2011,04,27,04,43,6.70
2011,04,27,04,44,6.70
2011,04,27,04,45,6.70
2011,04,27,04,46,6.70
2011,04,27,04,47,6.70
2011,04,27,04,48,6.70
2011,04,27,04,49,6.70
2011,04,27,04,50,6.70
2011,04,27,04,51,6.70
2011,04,27,04,52,6.70
2011,04,27,04,53,6.60
2011,04,27,04,54,6.60
2011,04,27,04,55,6.60
2011,04,27,04,56,6.60
2011,04,27,04,57,6.60
2011,04,27,04,58,6.60
2011,04,27,04,59,6.60
2011,04,27,05,00,6.60
2011,04,27,05,01,6.60
2011,04,27,05,02,6.60
2011,04,27,05,03,6.60
2011,04,27,05,04,6.60
2011,04,27,05,05,6.60
2011,04,27,05,06,6.60
2011,04,27,05,07,6.50
2011,04,27,05,08,6.50
2011,04,27,05,09,6.50
2011,04,27,05,10,6.40
2011,04,27,05,11,6.40
2011,04,27,05,12,6.40
2011,04,27,05,13,6.40
2011,04,27,05,14,6.30
2011,04,27,05,15,6.30
2011,04,27,05,16,6.30
2011,04,27,05,17,6.30
2011,04,27,05,18,6.30
2011,04,27,05,19,6.20
2011,04,27,05,20,6.20
2011,04,27,05,21,6.20
2011,04,27,05,22,6.20
2011,04,27,05,23,6.20
2011,04,27,05,24,6.10
2011,04,27,05,25,6.10
2011,04,27,05,26,6.10
2011,04,27,05,27,6.10
2011,04,27,05,28,6.10
2011,04,27,05,29,6.10
2011,04,27,05,30,6.00
2011,04,27,05,31,6.00
2011,04,27,05,32,6.00
2011,04,27,05,33,6.00
2011,04,27,05,34,5.90
2011,04,27,05,35,5.90
2011,04,27,05,36,5.90
2011,04,27,05,37,5.90
2011,04,27,05,38,5.90
2011,04,27,05,39,5.90
2011,04,27,05,40,5.90
2011,04,27,05,41,5.90
2011,04,27,05,42,5.90
2011,04,27,05,43,6.00
2011,04,27,05,44,6.00
2011,04,27,05,45,6.10
2011,04,27,05,46,6.10
2011,04,27,05,47,6.10
2011,04,27,05,48,6.10
2011,04,27,05,49,6.10
2011,04,27,05,50,6.10
2011,04,27,05,51,6.10
2011,04,27,05,52,6.10
2011,04,27,05,53,6.10
2011,04,27,05,54,6.10
2011,04,27,05,55,6.20
2011,04,27,05,56,6.20
2011,04,27,05,57,6.30
2011,04,27,05,58,6.40
2011,04,27,05,59,6.40
2011,04,27,06,00,6.40
2011,04,27,06,01,6.40
2011,04,27,06,02,6.50
2011,04,27,06,03,6.50
2011,04,27,06,04,6.60
2011,04,27,06,05,6.60
2011,04,27,06,06,6.60
2011,04,27,06,07,6.70
2011,04,27,06,08,6.70
2011,04,27,06,09,6.70
2011,04,27,06,10,6.70
2011,04,27,06,11,6.70
2011,04,27,06,12,6.80
2011,04,27,06,13,6.80
2011,04,27,06,14,6.80
2011,04,27,06,15,6.80
2011,04,27,06,16,6.80
2011,04,27,06,17,6.80
2011,04,27,06,18,6.80
2011,04,27,06,19,6.80
2011,04,27,06,20,6.80
2011,04,27,06,21,6.80
2011,04,27,06,22,6.70
2011,04,27,06,23,6.70
2011,04,27,06,24,6.70
2011,04,27,06,25,6.70
2011,04,27,06,26,6.70
2011,04,27,06,27,6.70
2011,04,27,06,28,6.70
2011,04,27,06,29,6.70
2011,04,27,06,30,6.60
2011,04,27,06,31,6.60
2011,04,27,06,32,6.60
2011,04,27,06,33,6.60
2011,04,27,06,34,6.60
2011,04,27,06,35,6.60
2011,04,27,06,36,6.60
2011,04,27,06,37,6.50
2011,04,27,06,38,6.50
2011,04,27,06,39,6.50
2011,04,27,06,40,6.40
2011,04,27,06,41,6.50
2011,04,27,06,42,6.50
2011,04,27,06,43,6.50
2011,04,27,06,44,6.50
2011,04,27,06,45,6.50
2011,04,27,06,46,6.50
2011,04,27,06,47,6.50
2011,04,27,06,48,6.50
2011,04,27,06,49,6.50
2011,04,27,06,50,6.50
2011,04,27,06,51,6.50
2011,04,27,06,52,6.50
2011,04,27,06,53,6.50
2011,04,27,11,24,8.30
2011,04,27,11,25,8.30
2011,04,27,11,26,8.20
2011,04,27,11,27,8.20
2011,04,27,11,28,8.20
2011,04,27,11,29,8.20
2011,04,27,11,30,8.20
2011,04,27,11,31,8.20
2011,04,27,11,32,8.20
2011,04,27,11,33,8.20
2011,04,27,11,34,8.20
2011,04,27,11,35,8.20
2011,04,27,11,36,8.20
2011,04,27,11,37,8.20
2011,04,27,11,38,8.20
2011,04,27,11,39,8.10
2011,04,27,11,40,8.10
2011,04,27,11,41,8.20
2011,04,27,11,42,8.20
2011,04,27,11,43,8.20
2011,04,27,11,44,8.20
2011,04,27,11,45,8.20
2011,04,27,11,46,8.10
2011,04,27,11,47,8.10
2011,04,27,11,48,8.10
2011,04,27,11,49,8.10
2011,04,27,11,50,8.10
2011,04,27,11,51,8.10
2011,04,27,11,52,8.10
2011,04,27,11,53,8.10
2011,04,27,11,54,8.10
2011,04,27,11,55,8.10
2011,04,27,11,56,8.20
2011,04,27,11,57,8.20
2011,04,27,11,58,8.20
2011,04,27,11,59,8.20
2011,04,27,12,00,8.20
2011,04,27,12,01,8.20
2011,04,27,12,02,8.20
2011,04,27,12,03,8.20
2011,04,27,12,04,8.20
2011,04,27,12,05,8.20
2011,04,27,12,06,8.20
2011,04,27,12,07,8.30
2011,04,27,12,08,8.30
2011,04,27,12,09,8.30
2011,04,27,12,10,8.30
2011,04,27,12,11,8.30
2011,04,27,12,12,8.30
2011,04,27,12,13,8.30
2011,04,27,12,14,8.20
2011,04,27,12,15,8.20
2011,04,27,12,16,8.30
2011,04,27,12,17,8.30
2011,04,27,12,18,8.30
2011,04,27,12,19,8.30
2011,04,27,12,20,8.30
2011,04,27,12,21,8.30
2011,04,27,12,22,8.30
2011,04,27,12,23,8.30
2011,04,27,12,24,8.30
2011,04,27,12,25,8.30
2011,04,27,12,26,8.30
2011,04,27,12,27,8.30
2011,04,27,12,28,8.20
2011,04,27,12,29,8.20
2011,04,27,12,30,8.20
2011,04,27,12,31,8.20
2011,04,27,12,32,8.20
2011,04,27,12,33,8.20
2011,04,27,12,34,8.20
2011,04,27,12,35,8.20
2011,04,27,12,36,8.20
2011,04,27,12,37,8.30
2011,04,27,12,38,8.30
2011,04,27,12,39,8.30
2011,04,27,12,40,8.30
2011,04,27,12,41,8.30
2011,04,27,12,42,8.30
2011,04,27,12,43,8.30
2011,04,27,12,44,8.30
2011,04,27,12,45,8.30
2011,04,27,12,46,8.30
2011,04,27,12,47,8.30
2011,04,27,12,48,8.30
2011,04,27,12,49,8.30
2011,04,27,12,50,8.30
2011,04,27,12,51,8.40
2011,04,27,12,52,8.30
2011,04,27,12,53,8.30
2011,04,27,12,54,8.30
2011,04,27,12,55,8.30
2011,04,27,12,56,8.40
2011,04,27,12,57,8.30
2011,04,27,12,58,8.40
2011,04,27,12,59,8.30
2011,04,27,13,00,8.30
2011,04,27,13,01,8.30
2011,04,27,13,02,8.30
2011,04,27,13,03,8.30
2011,04,27,13,04,8.30
2011,04,27,13,05,8.30
2011,04,27,13,06,8.30
2011,04,27,13,07,8.30
2011,04,27,13,08,8.30
2011,04,27,13,09,8.30
2011,04,27,13,10,8.30
2011,04,27,13,11,8.20
2011,04,27,13,12,8.20
2011,04,27,13,13,8.10
2011,04,27,13,14,8.00
2011,04,27,13,15,8.00
2011,04,27,13,16,7.90
2011,04,27,13,17,7.90
2011,04,27,13,18,7.90
2011,04,27,13,19,7.80
2011,04,27,13,20,7.70
2011,04,27,13,21,7.60
2011,04,27,13,22,7.50
2011,04,27,13,23,7.50
2011,04,27,13,24,7.40
2011,04,27,13,25,7.30
2011,04,27,13,26,7.30
2011,04,27,13,27,7.20
2011,04,27,13,28,7.10
2011,04,27,13,29,7.10
2011,04,27,13,30,7.00
2011,04,27,13,31,7.00
2011,04,27,13,32,6.90
2011,04,27,13,33,6.80
2011,04,27,13,34,6.70
2011,04,27,13,35,6.50
2011,04,27,13,36,6.40
2011,04,27,13,37,6.30
2011,04,27,13,38,6.10
2011,04,27,13,39,6.00
2011,04,27,13,40,5.90
2011,04,27,13,41,5.70
2011,04,27,13,42,5.60
2011,04,27,13,43,5.60
2011,04,27,13,44,5.50
2011,04,27,13,45,5.40
2011,04,27,13,46,5.30
2011,04,27,13,47,5.30
2011,04,27,13,48,5.30
2011,04,27,13,49,5.20
2011,04,27,13,50,5.20
2011,04,27,13,51,5.20
2011,04,27,13,52,5.20
2011,04,27,13,53,5.10
2011,04,27,13,54,5.10
2011,04,27,13,55,5.10
2011,04,27,13,56,5.10
2011,04,27,13,57,5.10
2011,04,27,13,58,5.10
2011,04,27,13,59,5.10
2011,04,27,14,00,5.10
2011,04,27,14,01,5.20
2011,04,27,14,02,5.20
2011,04,27,14,03,5.20
2011,04,27,14,04,5.20
2011,04,27,14,05,5.10
2011,04,27,14,06,5.10
2011,04,27,14,07,5.10
2011,04,27,14,08,5.10
2011,04,27,14,09,5.10
2011,04,27,14,10,5.10
2011,04,27,14,11,5.00
2011,04,27,14,12,5.00
2011,04,27,14,13,5.00
2011,04,27,14,14,4.90
2011,04,27,14,15,4.90
2011,04,27,14,16,4.90
2011,04,27,14,17,4.90
2011,04,27,14,18,4.90
2011,04,27,14,19,4.80
2011,04,27,14,20,4.80
2011,04,27,14,21,4.80
2011,04,27,14,22,4.80
2011,04,27,14,23,4.80
2011,04,27,14,24,4.80
2011,04,27,14,25,4.80
2011,04,27,14,26,4.80
2011,04,27,14,27,4.80
2011,04,27,14,28,4.80
2011,04,27,14,29,4.80
2011,04,27,14,30,4.80
2011,04,27,14,31,4.80
2011,04,27,14,32,4.80
2011,04,27,14,33,4.80
2011,04,27,14,34,4.80
2011,04,27,14,35,4.80
2011,04,27,14,36,4.80
2011,04,27,14,37,4.90
2011,04,27,14,38,4.90
2011,04,27,14,39,4.90
2011,04,27,14,40,4.80
2011,04,27,14,41,4.80
2011,04,27,14,42,4.80
2011,04,27,14,43,4.90
2011,04,27,14,44,4.90
2011,04,27,14,45,4.90
2011,04,27,14,46,4.90
2011,04,27,14,47,5.00
2011,04,27,14,48,5.00
2011,04,27,14,49,5.00
2011,04,27,14,50,5.00
2011,04,27,14,51,5.00
2011,04,27,14,52,5.10
2011,04,27,14,53,5.10
2011,04,27,14,54,5.10
2011,04,27,14,55,5.10
2011,04,27,14,56,5.10
2011,04,27,14,57,5.10
2011,04,27,14,58,5.10
2011,04,27,14,59,5.10
2011,04,27,15,00,5.10
2011,04,27,15,01,5.20
2011,04,27,15,02,5.20
2011,04,27,15,03,5.20
2011,04,27,15,04,5.30
2011,04,27,15,05,5.30
2011,04,27,15,06,5.30
2011,04,27,15,07,5.30
2011,04,27,15,08,5.30
2011,04,27,15,09,5.30
2011,04,27,15,10,5.30
2011,04,27,15,11,5.30
2011,04,27,15,12,5.30
2011,04,27,15,13,5.30
2011,04,27,15,14,5.30
2011,04,27,15,15,5.30
2011,04,27,15,16,5.30
2011,04,27,15,17,5.30
2011,04,27,15,18,5.30
2011,04,27,15,19,5.30
2011,04,27,15,20,5.30
2011,04,27,15,21,5.30
2011,04,27,15,22,5.30
2011,04,27,15,23,5.30
2011,04,27,15,24,5.30
2011,04,27,15,25,5.30
2011,04,27,15,26,5.40
2011,04,27,15,27,5.40
2011,04,27,15,28,5.40
2011,04,27,15,29,5.40
2011,04,27,15,30,5.30
2011,04,27,15,31,5.30
2011,04,27,15,32,5.30
2011,04,27,15,33,5.40
2011,04,27,15,34,5.40
2011,04,27,15,35,5.40
2011,04,27,15,36,5.40
2011,04,27,15,37,5.40
2011,04,27,15,38,5.40
2011,04,27,15,39,5.40
2011,04,27,15,40,5.40
2011,04,27,15,41,5.40
2011,04,27,15,42,5.40
2011,04,27,15,43,5.40
2011,04,27,15,44,5.40
2011,04,27,15,45,5.50
2011,04,27,15,46,5.50
2011,04,27,15,47,5.50
2011,04,27,15,48,5.60
2011,04,27,15,49,5.60
2011,04,27,15,50,5.70
2011,04,27,15,51,5.70
2011,04,27,15,52,5.70
2011,04,27,15,53,5.70
2011,04,27,15,54,5.70
2011,04,27,15,55,5.70
2011,04,27,15,56,5.70
2011,04,27,15,57,5.70
2011,04,27,15,58,5.70
2011,04,27,15,59,5.70
2011,04,27,16,00,5.70
2011,04,27,16,01,5.70
2011,04,27,16,02,5.70
2011,04,27,16,03,5.70
2011,04,27,16,04,5.70
2011,04,27,16,05,5.70
2011,04,27,16,06,5.80
2011,04,27,16,07,5.80
2011,04,27,16,08,5.80
2011,04,27,16,09,5.80
2011,04,27,16,10,5.80
2011,04,27,16,11,5.90
2011,04,27,16,12,5.80
2011,04,27,16,13,5.90
2011,04,27,16,14,5.90
2011,04,27,16,15,5.90
2011,04,27,16,16,5.90
2011,04,27,16,17,5.90
2011,04,27,16,18,5.90
2011,04,27,16,19,5.90
2011,04,27,16,20,5.90
2011,04,27,16,21,5.90
2011,04,27,16,22,5.90
2011,04,27,16,23,5.90
2011,04,27,16,24,5.90
2011,04,27,16,25,5.90
2011,04,27,16,26,5.80
2011,04,27,16,27,5.80
2011,04,27,16,28,5.80
2011,04,27,16,29,5.80
2011,04,27,16,30,5.80
2011,04,27,16,31,5.90
2011,04,27,16,32,5.90
2011,04,27,16,33,5.90
2011,04,27,16,34,5.90
2011,04,27,16,35,5.90
2011,04,27,16,36,5.90
2011,04,27,16,37,5.90
2011,04,27,16,38,5.90
2011,04,27,16,39,5.90
2011,04,27,16,40,5.90
2011,04,27,16,41,5.90
2011,04,27,16,42,5.90
2011,04,27,16,43,6.00
2011,04,27,16,44,6.00
2011,04,27,16,45,6.00
2011,04,27,16,46,6.00
2011,04,27,16,47,5.90
2011,04,27,16,48,5.90
2011,04,27,16,49,5.90
2011,04,27,16,50,5.90
2011,04,27,16,51,5.90
2011,04,27,16,52,5.90
2011,04,27,16,53,5.90
2011,04,27,16,54,5.90
2011,04,27,16,55,5.90
2011,04,27,16,56,5.90
2011,04,27,16,57,5.90
2011,04,27,16,58,5.90
2011,04,27,16,59,5.90
2011,04,27,17,00,5.80
2011,04,27,17,01,5.90
2011,04,27,17,02,5.90
2011,04,27,17,03,5.90
2011,04,27,17,04,5.90
2011,04,27,17,05,5.90
2011,04,27,17,06,5.90
2011,04,27,17,07,5.80
2011,04,27,17,08,5.90
2011,04,27,17,09,5.80
2011,04,27,17,10,5.80
2011,04,27,17,11,5.80
2011,04,27,17,12,5.80
2011,04,27,17,13,5.80
2011,04,27,17,14,5.80
2011,04,27,17,15,5.80
2011,04,27,17,16,5.80
2011,04,27,17,17,5.80
2011,04,27,17,18,5.80
2011,04,27,17,19,5.80
2011,04,27,17,20,5.80
2011,04,27,17,21,5.80
2011,04,27,17,22,5.80
2011,04,27,17,23,5.80
2011,04,27,17,24,5.80
2011,04,27,17,25,5.80
2011,04,27,17,26,5.80
2011,04,27,17,27,5.80
2011,04,27,17,28,5.80
2011,04,27,17,29,5.80
2011,04,27,17,30,5.80
2011,04,27,17,31,5.80
2011,04,27,17,32,5.80
2011,04,27,17,33,5.90
2011,04,27,17,34,5.90
2011,04,27,17,35,5.90
2011,04,27,17,36,5.90
2011,04,27,17,37,5.90
2011,04,27,17,38,6.00
2011,04,27,17,39,6.00
2011,04,27,17,40,6.00
2011,04,27,17,41,6.00
2011,04,27,17,42,6.00
2011,04,27,17,43,6.00
2011,04,27,17,44,6.00
2011,04,27,17,45,6.10
2011,04,27,17,46,6.10
2011,04,27,17,47,6.10
2011,04,27,17,48,6.10
2011,04,27,17,49,6.10
2011,04,27,17,50,6.20
2011,04,27,17,51,6.20
2011,04,27,17,52,6.20
2011,04,27,17,53,6.20
2011,04,27,17,54,6.10
2011,04,27,17,55,6.10
2011,04,27,17,56,6.10
2011,04,27,17,57,6.10
2011,04,27,17,58,6.10
2011,04,27,17,59,6.10
2011,04,27,18,00,6.10
2011,04,27,18,01,6.10
2011,04,27,18,02,6.10
2011,04,27,18,03,6.10
2011,04,27,18,04,6.10
2011,04,27,18,05,6.10
2011,04,27,18,06,6.10
2011,04,27,18,07,6.10
2011,04,27,18,08,6.10
2011,04,27,18,09,6.20
2011,04,27,18,10,6.20
2011,04,27,18,11,6.20
2011,04,27,18,12,6.20
2011,04,27,18,13,6.20
2011,04,27,18,14,6.20
2011,04,27,18,15,6.20
2011,04,27,18,16,6.20
2011,04,27,18,17,6.20
2011,04,27,18,18,6.20
2011,04,27,18,19,6.20
2011,04,27,18,20,6.20
2011,04,27,18,21,6.20
2011,04,27,18,22,6.20
2011,04,27,18,23,6.20
2011,04,27,18,24,6.20
2011,04,27,18,25,6.20
2011,04,27,18,26,6.20
2011,04,27,18,27,6.20
2011,04,27,18,28,6.20
2011,04,27,18,29,6.20
2011,04,27,18,30,6.20
2011,04,27,18,31,6.20
2011,04,27,18,32,6.20
2011,04,27,18,33,6.20
2011,04,27,18,34,6.20
2011,04,27,18,35,6.30
2011,04,27,18,36,6.30
2011,04,27,18,37,6.30
2011,04,27,18,38,6.30
2011,04,27,18,39,6.30
2011,04,27,18,40,6.30
2011,04,27,18,41,6.30
2011,04,27,18,42,6.30
2011,04,27,18,43,6.20
2011,04,27,18,44,6.20
2011,04,27,18,45,6.20
2011,04,27,18,46,6.20
2011,04,27,18,47,6.20
2011,04,27,18,48,6.20
2011,04,27,18,49,6.20
2011,04,27,18,50,6.20
2011,04,27,18,51,6.20
2011,04,27,18,52,6.20
2011,04,27,18,53,6.20
2011,04,27,18,54,6.20
2011,04,27,18,55,6.20
2011,04,27,18,56,6.20
2011,04,27,18,57,6.10
2011,04,27,18,58,6.10
2011,04,27,18,59,6.10
2011,04,27,19,00,6.10
2011,04,27,19,01,6.10
2011,04,27,19,02,6.10
2011,04,27,19,03,6.10
2011,04,27,19,04,6.10
2011,04,27,19,05,6.00
2011,04,27,19,06,6.00
2011,04,27,19,07,6.00
2011,04,27,19,08,6.00
2011,04,27,19,09,5.90
2011,04,27,19,10,5.90
2011,04,27,19,11,5.90
2011,04,27,19,12,5.90
2011,04,27,19,13,5.90
2011,04,27,19,14,5.90
2011,04,27,19,15,5.90
2011,04,27,19,16,5.90
2011,04,27,19,17,5.90
2011,04,27,19,18,5.80
2011,04,27,19,19,5.80
2011,04,27,19,20,5.80
2011,04,27,19,21,5.80
2011,04,27,19,22,5.80
2011,04,27,19,23,5.80
2011,04,27,19,24,5.80
2011,04,27,19,25,5.80
2011,04,27,19,26,5.80
2011,04,27,19,27,5.70
2011,04,27,19,28,5.70
2011,04,27,19,29,5.70
2011,04,27,19,30,5.70
2011,04,27,19,31,5.70
2011,04,27,19,32,5.70
2011,04,27,19,33,5.70
2011,04,27,19,34,5.60
2011,04,27,19,35,5.60
2011,04,27,19,36,5.60
2011,04,27,19,37,5.60
2011,04,27,19,38,5.60
2011,04,27,19,39,5.50
2011,04,27,19,40,5.50
2011,04,27,19,41,5.50
2011,04,27,19,42,5.50
2011,04,27,19,43,5.50
2011,04,27,19,44,5.40
2011,04,27,19,45,5.40
2011,04,27,19,46,5.40
2011,04,27,19,47,5.40
2011,04,27,19,48,5.40
2011,04,27,19,49,5.40
2011,04,27,19,50,5.40
2011,04,27,19,51,5.40
2011,04,27,19,52,5.40
2011,04,27,19,53,5.40
2011,04,27,19,54,5.40
2011,04,27,19,55,5.40
2011,04,27,19,56,5.40
2011,04,27,19,57,5.40
2011,04,27,19,58,5.30
2011,04,27,19,59,5.30
2011,04,27,20,00,5.30
2011,04,27,20,01,5.30
2011,04,27,20,02,5.20
2011,04,27,20,03,5.20
2011,04,27,20,04,5.20
2011,04,27,20,05,5.30
2011,04,27,20,06,5.30
2011,04,27,20,07,5.30
2011,04,27,20,08,5.30
2011,04,27,20,09,5.30
2011,04,27,20,10,5.30
2011,04,27,20,11,5.30
2011,04,27,20,12,5.30
2011,04,27,20,13,5.30
2011,04,27,20,14,5.30
2011,04,27,20,15,5.20
2011,04,27,20,16,5.20
2011,04,27,20,17,5.20
2011,04,27,20,18,5.20
2011,04,27,20,19,5.20
2011,04,27,20,20,5.20
2011,04,27,20,21,5.20
2011,04,27,20,22,5.20
2011,04,27,20,23,5.10
2011,04,27,20,24,5.10
2011,04,27,20,25,5.00
2011,04,27,20,26,4.90
2011,04,27,20,27,4.90
2011,04,27,20,28,4.90
2011,04,27,20,29,4.90
2011,04,27,20,30,4.80
2011,04,27,20,31,4.80
2011,04,27,20,32,4.80
2011,04,27,20,33,4.80
2011,04,27,20,34,4.70
2011,04,27,20,35,4.70
2011,04,27,20,36,4.60
2011,04,27,20,37,4.60
2011,04,27,20,38,4.50
2011,04,27,20,39,4.50
2011,04,27,20,40,4.50
2011,04,27,20,41,4.40
2011,04,27,20,42,4.40
2011,04,27,20,43,4.40
2011,04,27,20,44,4.40
2011,04,27,20,45,4.30
2011,04,27,20,46,4.30
2011,04,27,20,47,4.30
2011,04,27,20,48,4.30
2011,04,27,20,49,4.20
2011,04,27,20,50,4.20
2011,04,27,20,51,4.20
2011,04,27,20,52,4.20
2011,04,27,20,53,4.20
2011,04,27,20,54,4.10
2011,04,27,20,55,4.10
2011,04,27,20,56,4.10
2011,04,27,20,57,4.10
2011,04,27,20,58,4.10
2011,04,27,20,59,4.10
2011,04,27,21,00,4.00
2011,04,27,21,01,4.00
2011,04,27,21,02,4.00
2011,04,27,21,03,4.00
2011,04,27,21,04,4.00
2011,04,27,21,05,3.90
2011,04,27,21,06,3.90
2011,04,27,21,07,3.90
2011,04,27,21,08,3.90
2011,04,27,21,09,3.90
2011,04,27,21,10,3.90
2011,04,27,21,11,3.90
2011,04,27,21,12,3.80
2011,04,27,21,13,3.80
2011,04,27,21,14,3.80
2011,04,27,21,15,3.80
2011,04,27,21,16,3.80
2011,04,27,21,17,3.80
2011,04,27,21,18,3.80
2011,04,27,21,19,3.80
2011,04,27,21,20,3.80
2011,04,27,21,21,3.80
2011,04,27,21,22,3.80
2011,04,27,21,23,3.80
2011,04,27,21,24,3.80
2011,04,27,21,25,3.80
2011,04,27,21,26,3.80
2011,04,27,21,27,3.80
2011,04,27,21,28,3.80
2011,04,27,21,29,3.70
2011,04,27,21,30,3.70
2011,04,27,21,31,3.70
2011,04,27,21,32,3.70
2011,04,27,21,33,3.70
2011,04,27,21,34,3.70
2011,04,27,21,35,3.70
2011,04,27,21,36,3.70
2011,04,27,21,37,3.70
2011,04,27,21,38,3.70
2011,04,27,21,39,3.70
2011,04,27,21,40,3.70
2011,04,27,21,41,3.60
2011,04,27,21,42,3.60
2011,04,27,21,43,3.70
2011,04,27,21,44,3.70
2011,04,27,21,45,3.70
2011,04,27,21,46,3.70
2011,04,27,21,47,3.70
2011,04,27,21,48,3.70
2011,04,27,21,49,3.70
2011,04,27,21,50,3.60
2011,04,27,21,51,3.60
2011,04,27,21,52,3.60
2011,04,27,21,53,3.60
2011,04,27,21,54,3.50
2011,04,27,21,55,3.50
2011,04,27,21,56,3.50
2011,04,27,21,57,3.40
2011,04,27,21,58,3.40
2011,04,27,21,59,3.40
2011,04,27,22,00,3.40
2011,04,27,22,01,3.30
2011,04,27,22,02,3.30
2011,04,27,22,03,3.30
2011,04,27,22,04,3.30
2011,04,27,22,05,3.30
2011,04,27,22,06,3.30
2011,04,27,22,07,3.30
2011,04,27,22,08,3.30
2011,04,27,22,09,3.30
2011,04,27,22,10,3.30
2011,04,27,22,11,3.30
2011,04,27,22,12,3.30
2011,04,27,22,13,3.20
2011,04,27,22,14,3.20
2011,04,27,22,15,3.20
2011,04,27,22,16,3.20
2011,04,27,22,17,3.20
2011,04,27,22,18,3.20
2011,04,27,22,19,3.10
2011,04,27,22,20,3.10
2011,04,27,22,21,3.10
2011,04,27,22,22,3.10
2011,04,27,22,23,3.10
2011,04,27,22,24,3.10
2011,04,27,22,25,3.10
2011,04,27,22,26,3.10
2011,04,27,22,27,3.10
2011,04,27,22,28,3.10
2011,04,27,22,29,3.10
2011,04,27,22,30,3.10
2011,04,27,22,31,3.10
2011,04,27,22,32,3.10
2011,04,27,22,33,3.10
2011,04,27,22,34,3.10
2011,04,27,22,35,3.10
2011,04,27,22,36,3.10